When you browse on this site, cookies collect data to enhance your experience and personalize the content and advertising you see.
Visit our Privacy Policy to learn more. By continuing to use the site, you agree to this use of cookies and data.

Tiempo cada hora Plevlya

Hoy, 15 Julio, Miércoles

Tiempo Temperatura Precipitaciones Viento Presión Humedad
00:00 +10°C° 0 mm 1 mps 666 mmHg 91%
01:00 +10°C° 0 mm 1 mps 666 mmHg 91%
02:00 +10°C° 0 mm 1 mps 666 mmHg 91%
03:00 +10°C° 0 mm 1 mps 666 mmHg 91%
04:00 +10°C° 0 mm 1 mps 665 mmHg 91%
05:00 +12°C° 0 mm 1 mps 666 mmHg 85%
06:00 +14°C° 0 mm 1 mps 667 mmHg 78%
07:00 +16°C° 0 mm 1 mps 667 mmHg 72%
08:00 +19°C° 0 mm 1 mps 668 mmHg 64%
09:00 +19°C° 0 mm 2 mps 668 mmHg 55%
10:00 +21°C° 0 mm 2 mps 669 mmHg 47%
11:00 +21°C° 0 mm 3 mps 669 mmHg 48%
12:00 +21°C° 0 mm 3 mps 669 mmHg 49%
13:00 +22°C° 0 mm 3 mps 669 mmHg 51%
14:00 +21°C° 0.1 mm 3 mps 668 mmHg 53%
15:00 +21°C° 0.1 mm 3 mps 668 mmHg 55%
16:00 +21°C° 0.1 mm 2 mps 668 mmHg 57%
17:00 +19°C° 0.1 mm 2 mps 668 mmHg 66%
18:00 +17°C° 0.1 mm 2 mps 667 mmHg 75%
19:00 +15°C° 0.1 mm 1 mps 667 mmHg 83%
20:00 +14°C° 0 mm 1 mps 667 mmHg 86%
21:00 +13°C° 0 mm 1 mps 667 mmHg 88%
22:00 +13°C° 0 mm 1 mps 667 mmHg 90%
23:00 +12°C° 0 mm 1 mps 667 mmHg 89%

Mañana, 16 Julio, Jueves

Tiempo Temperatura Precipitaciones Viento Presión Humedad
00:00 +12°C° 0 mm 1 mps 667 mmHg 88%
01:00 +12°C° 0 mm 1 mps 666 mmHg 87%
02:00 +11°C° 0 mm 1 mps 666 mmHg 86%
03:00 +11°C° 0 mm 1 mps 666 mmHg 86%
04:00 +10°C° 0 mm 1 mps 666 mmHg 86%
05:00 +12°C° 0 mm 0 mps 666 mmHg 79%
06:00 +14°C° 0 mm 0 mps 667 mmHg 73%
07:00 +16°C° 0 mm 0 mps 668 mmHg 67%
08:00 +18°C° 0 mm 0 mps 668 mmHg 60%
09:00 +20°C° 0 mm 0 mps 669 mmHg 54%
10:00 +23°C° 0 mm 1 mps 669 mmHg 47%
11:00 +24°C° 0 mm 1 mps 669 mmHg 47%
12:00 +24°C° 0 mm 1 mps 669 mmHg 47%
13:00 +24°C° 0 mm 1 mps 669 mmHg 48%
14:00 +23°C° 0.4 mm 1 mps 668 mmHg 55%
15:00 +22°C° 0.4 mm 1 mps 668 mmHg 62%
16:00 +21°C° 0.4 mm 1 mps 667 mmHg 69%
17:00 +20°C° 0.4 mm 1 mps 667 mmHg 76%
18:00 +18°C° 0.4 mm 1 mps 667 mmHg 82%
19:00 +15°C° 0.4 mm 1 mps 666 mmHg 89%
20:00 +14°C° 0 mm 1 mps 666 mmHg 90%
21:00 +12°C° 0 mm 0 mps 666 mmHg 91%
22:00 +12°C° 0 mm 0 mps 666 mmHg 92%
23:00 +11°C° 0 mm 0 mps 666 mmHg 92%

Pasado mañana, 17 Julio, Viernes

Tiempo Temperatura Precipitaciones Viento Presión Humedad
00:00 +11°C° 0 mm 0 mps 666 mmHg 92%
01:00 +11°C° 0 mm 0 mps 666 mmHg 92%
02:00 +10°C° 0 mm 0 mps 665 mmHg 92%
03:00 +10°C° 0 mm 0 mps 665 mmHg 93%
04:00 +10°C° 0 mm 0 mps 665 mmHg 93%
05:00 +11°C° 0 mm 0 mps 665 mmHg 91%
06:00 +13°C° 0 mm 0 mps 666 mmHg 90%
07:00 +16°C° 0 mm 1 mps 666 mmHg 88%
08:00 +18°C° 0.1 mm 1 mps 667 mmHg 81%
09:00 +20°C° 0.1 mm 1 mps 667 mmHg 73%
10:00 +22°C° 0.1 mm 1 mps 667 mmHg 65%
11:00 +22°C° 0.7 mm 1 mps 667 mmHg 70%
12:00 +22°C° 0.7 mm 1 mps 667 mmHg 74%
13:00 +22°C° 0.7 mm 1 mps 667 mmHg 78%
14:00 +21°C° 1.4 mm 1 mps 666 mmHg 81%
15:00 +20°C° 1.4 mm 1 mps 666 mmHg 84%
16:00 +19°C° 1.4 mm 1 mps 666 mmHg 87%
17:00 +18°C° 1 mm 1 mps 666 mmHg 89%
18:00 +16°C° 1 mm 1 mps 665 mmHg 92%
19:00 +15°C° 1 mm 1 mps 665 mmHg 94%
20:00 +14°C° 0.1 mm 1 mps 665 mmHg 95%
21:00 +14°C° 0.1 mm 1 mps 666 mmHg 96%
22:00 +13°C° 0.1 mm 1 mps 666 mmHg 98%
23:00 +13°C° 0 mm 1 mps 666 mmHg 98%

18 Julio, Sábado

Tiempo Temperatura Precipitaciones Viento Presión Humedad
00:00 +13°C° 0 mm 1 mps 666 mmHg 98%
01:00 +13°C° 0 mm 1 mps 666 mmHg 98%
02:00 +13°C° 0 mm 1 mps 666 mmHg 98%
03:00 +13°C° 0 mm 1 mps 665 mmHg 98%
04:00 +13°C° 0 mm 1 mps 665 mmHg 98%
05:00 +13°C° 0.1 mm 1 mps 665 mmHg 97%
06:00 +14°C° 0.1 mm 1 mps 666 mmHg 97%
07:00 +14°C° 0.1 mm 1 mps 666 mmHg 96%
08:00 +14°C° 0.2 mm 1 mps 666 mmHg 94%
09:00 +15°C° 0.2 mm 1 mps 666 mmHg 92%
10:00 +16°C° 0.2 mm 1 mps 667 mmHg 89%
11:00 +15°C° 0.9 mm 1 mps 666 mmHg 91%
12:00 +15°C° 0.9 mm 1 mps 666 mmHg 92%
13:00 +15°C° 0.9 mm 1 mps 666 mmHg 93%
14:00 +15°C° 0.6 mm 1 mps 666 mmHg 94%
15:00 +14°C° 0.6 mm 1 mps 666 mmHg 95%
16:00 +14°C° 0.6 mm 1 mps 665 mmHg 96%
17:00 +13°C° 0.4 mm 1 mps 665 mmHg 97%
18:00 +13°C° 0.4 mm 1 mps 665 mmHg 98%
19:00 +13°C° 0.4 mm 1 mps 665 mmHg 98%
20:00 +12°C° 0.8 mm 1 mps 665 mmHg 98%
21:00 +12°C° 0.8 mm 1 mps 666 mmHg 98%
22:00 +12°C° 0.8 mm 1 mps 666 mmHg 99%
23:00 +12°C° 0.1 mm 1 mps 666 mmHg 98%

19 Julio, Domingo

Tiempo Temperatura Precipitaciones Viento Presión Humedad
00:00 +12°C° 0.1 mm 1 mps 666 mmHg 98%
01:00 +12°C° 0.1 mm 1 mps 666 mmHg 98%
02:00 +12°C° 0 mm 1 mps 666 mmHg 98%
03:00 +12°C° 0 mm 1 mps 666 mmHg 98%
04:00 +11°C° 0 mm 1 mps 666 mmHg 98%
05:00 +12°C° 0 mm 1 mps 666 mmHg 97%
06:00 +12°C° 0 mm 1 mps 666 mmHg 96%
07:00 +13°C° 0 mm 1 mps 666 mmHg 95%
08:00 +14°C° 0 mm 1 mps 667 mmHg 89%
09:00 +16°C° 0 mm 1 mps 668 mmHg 83%
10:00 +18°C° 0 mm 1 mps 668 mmHg 77%
11:00 +20°C° 0 mm 1 mps 668 mmHg 71%
12:00 +21°C° 0 mm 1 mps 668 mmHg 65%
13:00 +23°C° 0 mm 1 mps 669 mmHg 58%
14:00 +23°C° 0 mm 1 mps 668 mmHg 57%
15:00 +22°C° 0 mm 1 mps 668 mmHg 56%
16:00 +22°C° 0 mm 1 mps 668 mmHg 54%
17:00 +20°C° 0 mm 1 mps 668 mmHg 63%
18:00 +18°C° 0 mm 1 mps 667 mmHg 72%
19:00 +15°C° 0 mm 1 mps 667 mmHg 81%
20:00 +13°C° 0 mm 0 mps 667 mmHg 84%
21:00 +12°C° 0 mm 0 mps 667 mmHg 87%
22:00 +11°C° 0 mm 0 mps 667 mmHg 89%
23:00 +11°C° 0 mm 0 mps 667 mmHg 90%

20 Julio, Lunes

Tiempo Temperatura Precipitaciones Viento Presión Humedad
00:00 +12°C° 0 mm 1 mps 667 mmHg 90%
01:00 +11°C° 0 mm 1 mps 667 mmHg 91%
02:00 +11°C° 0 mm 1 mps 667 mmHg 91%
03:00 +11°C° 0 mm 1 mps 667 mmHg 91%
04:00 +11°C° 0 mm 1 mps 667 mmHg 91%
05:00 +12°C° 0 mm 0 mps 667 mmHg 84%
06:00 +14°C° 0 mm 0 mps 668 mmHg 77%
07:00 +16°C° 0 mm 0 mps 668 mmHg 70%
08:00 +20°C° 0 mm 1 mps 669 mmHg 63%
09:00 +21°C° 0 mm 1 mps 669 mmHg 55%
10:00 +23°C° 0 mm 1 mps 670 mmHg 48%
11:00 +24°C° 0 mm 2 mps 670 mmHg 47%
12:00 +24°C° 0 mm 2 mps 670 mmHg 46%
13:00 +25°C° 0 mm 2 mps 670 mmHg 45%
14:00 +25°C° 0 mm 2 mps 670 mmHg 47%
15:00 +25°C° 0 mm 2 mps 670 mmHg 48%
16:00 +24°C° 0 mm 2 mps 669 mmHg 50%
17:00 +22°C° 0 mm 1 mps 669 mmHg 59%
18:00 +20°C° 0 mm 1 mps 668 mmHg 69%
19:00 +16°C° 0 mm 0 mps 668 mmHg 78%
20:00 +15°C° 0 mm 0 mps 668 mmHg 81%
21:00 +14°C° 0 mm 0 mps 668 mmHg 84%
22:00 +13°C° 0 mm 0 mps 668 mmHg 86%
23:00 +13°C° 0 mm 0 mps 668 mmHg 87%
Mostrar más